TimeMDT,TemperatureF,Dew PointF,Humidity,Sea Level PressureIn,VisibilityMPH,Wind Direction,Wind SpeedMPH,Gust SpeedMPH,PrecipitationIn,Events,Conditions,WindDirDegrees,DateUTC
12:56 AM,61.0,59.0,93,29.82,-9999.0,South,13.8,-,0.02,,Unknown,180,2013-08-08 06:56:00
1:56 AM,62.1,60.1,93,29.83,-9999.0,West,4.6,-,0.01,,Unknown,260,2013-08-08 07:56:00
2:56 AM,62.1,60.1,93,29.83,-9999.0,North,10.4,-,N/A,,Unknown,350,2013-08-08 08:56:00
3:56 AM,63.0,61.0,93,29.84,-9999.0,North,4.6,-,N/A,,Unknown,360,2013-08-08 09:56:00
4:56 AM,63.0,61.0,93,29.87,-9999.0,Calm,Calm,-,N/A,,Unknown,0,2013-08-08 10:56:00
5:56 AM,61.0,60.1,97,29.90,-9999.0,Calm,Calm,-,N/A,,Unknown,0,2013-08-08 11:56:00
6:56 AM,62.1,60.1,93,29.92,-9999.0,Calm,Calm,-,N/A,,Unknown,0,2013-08-08 12:56:00
7:56 AM,66.0,61.0,84,29.91,-9999.0,NNW,3.5,-,N/A,,Unknown,340,2013-08-08 13:56:00
8:56 AM,66.0,60.1,81,29.93,-9999.0,North,6.9,-,N/A,,Unknown,350,2013-08-08 14:56:00
9:56 AM,68.0,60.1,76,29.94,-9999.0,NNW,9.2,-,N/A,,Unknown,330,2013-08-08 15:56:00
10:56 AM,71.1,60.1,68,29.94,-9999.0,NNW,9.2,-,N/A,,Unknown,340,2013-08-08 16:56:00
11:56 AM,71.1,60.1,68,29.94,-9999.0,NNE,6.9,-,N/A,,Unknown,30,2013-08-08 17:56:00
12:56 PM,72.0,62.1,71,29.94,-9999.0,NNE,6.9,-,N/A,,Unknown,20,2013-08-08 18:56:00
1:56 PM,73.0,61.0,66,29.93,-9999.0,Variable,6.9,-,N/A,,Unknown,0,2013-08-08 19:56:00
2:56 PM,70.0,61.0,73,29.93,-9999.0,ENE,6.9,-,N/A,,Unknown,60,2013-08-08 20:56:00
3:56 PM,73.0,60.1,64,29.91,-9999.0,NNE,6.9,-,N/A,,Unknown,30,2013-08-08 21:56:00
4:56 PM,71.1,62.1,73,29.91,-9999.0,NE,10.4,-,N/A,,Unknown,40,2013-08-08 22:56:00
5:56 PM,66.9,63.0,87,29.94,-9999.0,East,15.0,-,N/A,,Unknown,90,2013-08-08 23:56:00
6:23 PM,64.4,59.0,83,30.11,-9999.0,NNE,15.0,21.9,N/A,,Unknown,20,2013-08-09 00:23:00
6:56 PM,64.9,63.0,93,29.96,-9999.0,East,11.5,-,N/A,,Unknown,80,2013-08-09 00:56:00
7:56 PM,64.0,62.1,93,29.95,-9999.0,ENE,11.5,-,0.03,,Unknown,70,2013-08-09 01:56:00
8:56 PM,64.0,63.0,96,29.97,-9999.0,ENE,4.6,-,0.11,,Unknown,60,2013-08-09 02:56:00
9:56 PM,64.0,62.1,93,29.98,-9999.0,NNE,4.6,-,N/A,,Unknown,30,2013-08-09 03:56:00
10:56 PM,64.0,62.1,93,29.99,-9999.0,East,9.2,-,0.01,,Unknown,100,2013-08-09 04:56:00
11:56 PM,63.0,62.1,97,29.99,-9999.0,East,13.8,-,0.05,,Unknown,90,2013-08-09 05:56:00